Flag for U.S.A. Weather past 2 weeks in Des Moines, Iowa, U.S.A.

Now
71 °F

Partly sunny.


Feels Like: 73 °F
Forecast: 61 / 83 °F
Wind: No wind

Location: Des Moines International Airport

Current Time: Jul 31, 2014 at 10:03:24 PM

Latest Report: Jul 31, 2014 at 8:54 PM


Visibility: 10 mi

Pressure: 30.02 "Hg

Humidity: 76%

Dew point: 63 °F

Location of Des MoinesLocation

Historic Weather in Des Moines — Graph

°F

Des Moines temperature yesterday

Maximum temperature yesterday: 82 °F (at 2:54 PM)
Minimum temperature yesterday: 59 °F (at 5:54 AM)
Average temperature yesterday: 71 °F

Past Weeks' High & Low Weather Summary

 TemperatureHumidityPressure
High92 °F (Jul 21, 3:54 PM)91% (Jul 27, 1:54 AM)30.20 "Hg (Jul 27, 1:54 AM)
Low59 °F (Jul 17, 5:54 AM)37% (Jul 30, 4:54 PM)29.74 "Hg (Jul 25, 8:54 PM)
Average74 °F66%30.00 "Hg
* Reported Jul 16 8:54 PM — Jul 31 8:54 PM, Des Moines, Weather by CustomWeather, © 2014

Note: Actual official high and low records may vary slightly from our data, if they occured in-between our weather recording intervals... More about our weather records

Advertising

Des Moines weather history for previous 24 hours

 ConditionsComfort  
Time TempWeatherWind HumidityBarometerVisibility
8:54 PM
Jul 31
71 °FPartly sunny.No wind76%30.02 "Hg10 mi
7:54 PM71 °FOvercast.5 mph81%30.02 "Hg10 mi
6:54 PM71 °FBroken clouds.8 mph78%30.03 "Hg10 mi
5:54 PM80 °FPartly sunny.7 mph44%30.03 "Hg10 mi
4:54 PM81 °FPartly sunny.6 mph39%30.02 "Hg10 mi
3:54 PM83 °FScattered clouds.8 mph40%30.03 "Hg10 mi
2:54 PM82 °FPassing clouds.7 mph40%30.05 "Hg10 mi
1:54 PM82 °FPassing clouds.6 mph40%30.05 "Hg10 mi
12:54 PM81 °FPassing clouds.8 mph42%30.06 "Hg10 mi
11:54 AM80 °FPassing clouds.3 mph45%30.07 "Hg10 mi
10:54 AM77 °FPassing clouds.5 mph56%30.08 "Hg10 mi
9:54 AM73 °FSunny.5 mph64%30.08 "Hg10 mi
8:54 AM68 °FPassing clouds.No wind76%30.08 "Hg10 mi
7:54 AM63 °FSunny.3 mph81%30.08 "Hg10 mi
6:54 AM60 °FPassing clouds.3 mph86%30.08 "Hg10 mi
5:54 AM60 °FPassing clouds.No wind83%30.07 "Hg10 mi
4:54 AM62 °FClear.No wind83%30.06 "Hg10 mi
3:54 AM61 °FClear.3 mph87%30.06 "Hg10 mi
2:54 AM64 °FClear.No wind78%30.06 "Hg10 mi
1:54 AM65 °FClear.3 mph78%30.07 "Hg10 mi
12:54 AM67 °FClear.No wind68%30.07 "Hg10 mi
11:54 PM
Jul 30
69 °FClear.No wind63%30.07 "Hg10 mi
10:54 PM70 °FClear.No wind61%30.07 "Hg10 mi
Weather by CustomWeather, © 2014

See weather overviewHow to use our weather pages